Weather History for Hamilton, OH

Change the Weather History Date:

Sunday, March 23, 2014

  Actual Average (KCVG) Record (KCVG)
Temperature  
Mean Temperature 34 °F 46 °F  
Max Temperature 39 °F 56 °F 84 °F (1907)
Min Temperature 28 °F 36 °F 11 °F (1885)
Degree Days  
Heating Degree Days 32 19  
Month to date heating degree days 526  
Since 1 July heating degree days 4353  
Cooling Degree Days 0 0  
Month to date cooling degree days 0  
Year to date cooling degree days 0  
Moisture  
Dew Point 20 °F    
Average Humidity 56    
Maximum Humidity 78    
Minimum Humidity 39    
Precipitation  
Precipitation 0.00 in 0.13 in 1.30 in (1975)
Month to date precipitation 2.83  
Year to date precipitation 8.64  
Snow  
Snow 0.00 in 0.10 in 3.50 in (1896)
Month to date snowfall 2.6  
Since 1 July snowfall 21.2  
Snow Depth -    
Sea Level Pressure  
Sea Level Pressure 30.30 in    
Wind  
Wind Speed 8 mph (North)    
Max Wind Speed 14 mph    
Max Gust Speed 21 mph    
Visibility 10 miles    
Events      
T = Trace of Precipitation, MM = Missing Value Source: NWS Daily Summary

Daily Weather History Graph

Daily Weather History Graph

Search for Another Location

Airport:

Trip Planner

Search our weather history database for the weather conditions in past years. The results will help you decide how hot, cold, wet, or windy it might be!

Date:

Astronomy

Mar. 23, 2014 Rise Set
Actual Time 7:36 AM EDT 7:53 PM EDT
Civil Twilight 7:09 AM EDT 8:19 PM EDT
Nautical Twilight 6:38 AM EDT 8:51 PM EDT
Astronomical Twilight 6:06 AM EDT 9:23 PM EDT
Moon 2:07 AM EDT (3/23) 12:18 PM EDT (3/23)
Length of Visible Light 13h 09m
Length of Day
12h 16m
Waning Gibbous, 55% of the Moon is Illuminated
Mar 23
Waning Gibbous
Mar 23
Last Quarter
Mar 30
New
Apr 7
First Quarter
Apr 15
Full

Hourly Weather History & Observations

Time (EDT) Temp. Windchill Dew Point Humidity Pressure Visibility Wind Dir Wind Speed Gust Speed Precip Events Conditions
12:53 AM 35.1 °F 32.2 °F 28.9 °F 78% 30.21 in 10.0 mi North 3.5 mph - N/A   Clear
1:53 AM 36.0 °F 33.3 °F 28.9 °F 76% 30.21 in 10.0 mi North 3.5 mph - N/A   Clear
2:53 AM 36.0 °F 33.3 °F 28.0 °F 73% 30.22 in 10.0 mi NNW 3.5 mph - N/A   Clear
3:53 AM 37.9 °F 32.7 °F 28.9 °F 70% 30.22 in 10.0 mi North 6.9 mph - N/A   Overcast
4:53 AM 37.0 °F 29.3 °F 28.0 °F 70% 30.24 in 10.0 mi North 11.5 mph - N/A   Overcast
5:33 AM 36.0 °F 29.0 °F 26.1 °F 67% 30.22 in 10.0 mi North 9.2 mph - N/A   Overcast
5:53 AM 35.1 °F 26.4 °F 23.0 °F 61% 30.25 in 10.0 mi North 12.7 mph - N/A   Overcast
6:53 AM 34.0 °F 26.0 °F 23.0 °F 64% 30.27 in 10.0 mi North 10.4 mph - N/A   Overcast
7:53 AM 33.1 °F 24.4 °F 21.9 °F 64% 30.29 in 10.0 mi North 11.5 mph - N/A   Overcast
8:53 AM 33.1 °F 24.9 °F 21.9 °F 64% 30.31 in 10.0 mi North 10.4 mph - N/A   Overcast
9:07 AM 33.1 °F 24.9 °F 21.9 °F 64% 30.29 in 10.0 mi North 10.4 mph - N/A   Overcast
9:39 AM 33.1 °F 26.1 °F 19.0 °F 56% 30.30 in 10.0 mi North 8.1 mph 19.6 mph N/A   Overcast
9:53 AM 32.0 °F 23.6 °F 18.0 °F 56% 30.33 in 10.0 mi North 10.4 mph - N/A   Overcast
10:53 AM 35.1 °F 26.9 °F 17.1 °F 48% 30.34 in 10.0 mi North 11.5 mph - N/A   Overcast
11:53 AM 37.0 °F 31.6 °F 18.0 °F 46% 30.34 in 10.0 mi North 6.9 mph - N/A   Overcast
12:53 PM 37.0 °F 28.9 °F 17.1 °F 44% 30.34 in 10.0 mi North 12.7 mph 20.7 mph N/A   Overcast
1:53 PM 37.9 °F 29.6 °F 16.0 °F 41% 30.34 in 10.0 mi North 13.8 mph 19.6 mph N/A   Overcast
2:53 PM 37.9 °F 29.6 °F 16.0 °F 41% 30.32 in 10.0 mi NNE 13.8 mph - N/A   Overcast
3:53 PM 39.0 °F 31.8 °F 16.0 °F 39% 30.31 in 10.0 mi North 11.5 mph 17.3 mph N/A   Partly Cloudy
4:53 PM 39.0 °F 32.3 °F 16.0 °F 39% 30.30 in 10.0 mi NNE 10.4 mph 19.6 mph N/A   Mostly Cloudy
5:53 PM 37.9 °F 30.5 °F 16.0 °F 41% 30.31 in 10.0 mi North 11.5 mph - N/A   Mostly Cloudy
6:53 PM 36.0 °F 31.1 °F 15.1 °F 43% 30.32 in 10.0 mi NNW 5.8 mph - N/A   Overcast
7:53 PM 35.1 °F 27.4 °F 15.1 °F 44% 30.34 in 10.0 mi North 10.4 mph - N/A   Overcast
8:53 PM 33.1 °F 27.7 °F 15.1 °F 48% 30.35 in 10.0 mi North 5.8 mph - N/A   Scattered Clouds
9:53 PM 30.0 °F 24.1 °F 15.1 °F 54% 30.37 in 10.0 mi NNE 5.8 mph - N/A   Clear
10:53 PM 28.9 °F 21.9 °F 15.1 °F 56% 30.37 in 10.0 mi NNE 6.9 mph - N/A   Clear
11:53 PM 28.0 °F 22.8 °F 14.0 °F 56% 30.38 in 10.0 mi NNE 4.6 mph - N/A   Clear